Location: Sortland
(68.7020°N, 15.4240°E)
Time: 18:23:45
(UTC+01:00)

Envisat - Pass Details

Date: 26 October 2019
Orbit: 764 x 766 km, 98.1° (Epoch: 19 November)

Event Time Altitude Azimuth Distance (km) Brightness Sun altitude
Rises 19:12:30 0° 183° (S) 3,233 6.3 -14.4°
Reaches altitude 10° 19:14:54 10° 190° (S) 2,309 5.6 -14.6°
Maximum altitude 19:19:46 44° 262° (W) 1,062 4.3 -15.0°
Drops below altitude 10° 19:24:39 10° 334° (NNW) 2,320 5.9 -15.5°
Sets 19:27:05 0° 342° (NNW) 3,250 6.6 -15.7°
